Wind_Speed
7 8 10 12 12 13 15 17 18 18 18 19 18 19 19 19 19 20 20 21 21 21 20 21 22 23 23 23 23 24 24 24 25 26 26 26 26 27 28 28 29 30 31
6 8 10 11 12 12 13 15 16 17 17 17 18 19 19 19 19 20 21 21 21 22 22 23 23 24 24 25 25 26 26 26 27 28 29 29 29 30 30 31 32 33 33
7 8 8 10 11 12 13 14 15 16 16 16 17 19 20 20 21 21 22 22 23 23 23 24 24 25 25 26 26 27 27 28 28 29 31 32 33 33 33 34 35 36 36
7 7 9 10 11 12 13 14 13 14 16 16 17 18 19 20 20 22 23 24 25 25 25 25 25 25 26 26 27 28 28 29 30 31 33 34 35 36 37 38 38 39 40
7 8 8 10 11 13 13 13 13 13 15 16 17 18 19 20 21 22 23 23 24 25 25 26 26 27 27 28 29 30 30 31 33 34 36 37 38 39 40 41 41 42 43
8 9 9 10 11 11 12 12 13 14 15 16 17 18 19 19 20 21 22 23 24 25 26 27 27 28 29 31 31 32 34 35 37 38 40 41 41 42 43 44 44 45 46
10 11 11 11 11 12 13 14 14 15 15 16 17 18 18 19 20 20 22 24 24 26 27 28 29 31 32 32 34 36 37 39 40 41 42 43 44 45 46 48 49 50 50
13 12 12 13 13 14 15 16 17 16 17 18 18 18 19 19 20 21 23 24 26 27 28 30 32 34 35 36 37 39 40 41 42 43 45 46 47 48 50 51 52 54 55
16 16 16 16 16 16 17 18 18 19 20 20 21 21 22 22 23 24 26 27 28 30 31 33 35 36 37 38 40 41 43 44 45 46 48 49 51 53 54 56 57 58 59
19 18 18 17 17 18 18 19 20 21 22 22 23 24 25 26 27 28 30 31 33 34 35 36 37 38 39 40 42 44 45 47 49 50 52 53 55 57 59 60 62 63 64
22 21 21 20 19 20 20 21 22 23 24 25 26 27 28 29 30 31 32 33 35 36 37 38 39 40 41 43 45 46 48 50 52 54 56 58 60 61 62 64 65 65 66
23 23 23 22 22 22 22 23 24 25 27 29 29 30 30 31 32 33 34 35 37 38 39 40 41 42 44 46 48 50 52 54 56 58 59 61 62 63 63 64 65 65 66
25 25 25 24 24 24 25 26 25 26 28 29 30 31 32 32 33 34 35 36 37 38 40 41 43 45 47 50 52 54 56 58 59 60 61 62 62 63 63 63 64 64 64
26 26 25 26 26 25 26 26 26 27 29 30 29 30 32 33 34 35 35 36 37 40 42 44 46 49 51 53 55 56 58 58 59 60 60 61 61 61 61 60 60 59 57
26 26 26 27 26 26 26 27 27 27 27 28 28 29 31 32 33 34 36 38 40 43 45 47 50 52 53 55 56 57 57 58 59 59 59 58 58 57 57 56 55 54 52
26 27 27 26 26 27 27 26 27 28 28 29 29 30 31 32 34 36 38 41 43 45 47 49 51 53 54 55 56 56 56 57 57 56 55 54 53 52 51 50 49 48 47
24 25 24 23 24 25 26 26 27 27 28 29 31 32 33 35 37 39 41 43 45 47 48 50 51 52 52 53 53 53 53 53 52 51 50 48 47 46 45 44 43 42 41
20 21 22 22 21 22 23 24 25 27 28 30 32 33 35 37 39 41 43 45 46 47 48 48 49 49 49 49 49 49 48 48 47 46 44 43 42 42 40 39 38 37 36
18 19 20 20 20 21 21 23 25 27 29 32 33 34 36 38 40 42 43 44 45 45 45 46 46 46 46 46 45 45 44 43 42 41 39 39 38 37 36 35 34 33 32
17 17 18 18 19 21 23 25 27 29 30 32 33 35 37 38 40 41 42 42 43 43 43 43 43 43 42 42 41 41 40 39 38 37 35 35 34 34 33 31 30 29 28
15 16 17 19 20 21 24 26 28 29 31 32 33 35 36 38 39 39 40 40 39 40 40 39 39 38 38 37 37 37 36 34 33 33 32 31 31 30 29 29 28 27 26
15 16 17 19 21 23 24 26 28 30 31 32 34 35 36 36 37 36 36 36 36 36 35 35 35 34 33 33 33 33 32 31 30 29 29 28 28 28 27 27 26 25 24
14 16 18 20 22 24 26 28 29 30 31 32 33 33 33 33 33 33 33 33 33 32 32 32 31 31 30 30 31 30 29 28 28 27 27 26 26 26 26 25 24 23 23
16 18 20 22 24 26 27 28 29 30 31 31 31 31 31 31 31 30 30 30 30 29 29 29 29 29 28 29 29 28 28 27 26 25 25 25 25 25 25 24 23 23 22
19 21 23 24 26 26 27 28 29 30 30 29 29 29 29 29 28 28 28 27 27 26 26 27 27 27 27 27 27 27 26 26 25 25 25 25 24 24 24 24 23 23 22
22 23 25 25 26 27 27 28 28 28 27 27 26 26 26 26 26 26 25 25 24 24 25 25 25 25 25 25 26 26 26 25 25 24 24 24 24 24 24 24 23 23 22
Wind_Direction
230 221 221 217 217 217 219 224 227 230 234 237 239 241 242 243 244 247 251 254 256 259 262 266 269 271 273 274 275 275 274 274 276 277 276 275 275 275 276 275 275 276 277
242 231 227 225 225 225 223 225 228 231 235 238 238 240 243 246 249 252 254 254 258 260 263 266 270 273 275 275 276 277 277 277 277 278 278 277 277 276 276 276 277 277 276
255 242 235 234 233 231 229 229 233 234 236 239 244 245 246 251 256 256 255 255 259 262 265 268 269 272 274 275 277 278 279 279 279 279 280 280 280 279 279 279 279 278 278
261 252 245 240 241 240 238 236 240 240 241 244 249 251 253 256 260 260 259 259 261 264 266 267 268 270 273 275 278 280 280 280 281 281 281 281 281 281 281 281 280 279 279
264 256 249 247 249 245 242 243 245 248 247 248 250 254 259 261 264 263 263 265 266 266 267 269 269 271 273 275 279 280 281 281 282 282 282 281 282 281 281 281 280 280 280
265 257 255 257 251 248 247 249 253 254 257 257 256 258 261 263 266 267 266 267 269 268 269 270 271 274 276 278 279 280 281 282 282 283 283 283 282 282 282 281 280 280 280
266 261 258 258 256 255 255 257 261 262 263 266 266 265 266 269 273 274 273 273 272 272 272 273 274 275 277 280 281 282 283 283 283 283 283 283 283 283 282 282 281 281 280
266 267 266 265 264 262 261 263 265 267 267 267 269 270 272 274 276 278 279 278 277 276 276 278 279 279 280 281 282 283 283 283 283 283 283 283 283 283 283 283 283 282 281
262 263 265 267 268 267 265 265 266 268 270 272 271 273 274 277 278 279 280 281 281 281 281 281 280 280 281 282 283 284 284 284 284 284 284 284 284 284 284 284 283 283 282
260 261 263 267 268 265 265 267 269 273 274 274 273 276 277 278 279 279 280 281 282 282 282 282 281 282 282 283 285 285 285 286 286 286 286 286 286 286 285 285 284 284 283
257 259 263 265 267 269 271 270 272 275 276 275 276 278 279 280 281 282 282 282 283 283 283 283 283 284 285 286 286 286 286 286 286 287 287 287 287 287 287 286 285 284 284
255 259 262 264 268 272 272 271 273 276 277 276 278 279 279 282 283 284 283 284 284 284 284 285 286 287 288 288 288 288 287 287 288 288 288 288 288 288 287 286 286 285 284
259 261 263 265 269 271 271 272 275 277 278 279 280 279 280 282 284 284 284 286 287 287 288 289 289 290 290 290 289 289 289 289 290 290 290 290 289 288 288 287 287 286 286
260 262 262 264 269 270 272 274 276 279 280 282 282 281 282 284 285 285 287 288 290 291 292 291 291 291 291 291 291 291 291 292 292 292 291 291 290 289 289 288 288 288 288
259 261 264 263 265 269 271 275 278 280 282 282 283 284 283 286 289 290 292 293 293 293 293 293 292 292 292 292 293 293 293 293 293 293 292 292 291 291 291 290 290 289 289
258 259 262 263 266 271 274 276 277 279 282 285 286 286 288 291 292 293 294 294 294 295 294 294 294 294 294 294 295 295 295 295 295 295 295 295 294 294 293 293 292 291 291
259 259 261 267 269 272 273 275 280 282 284 286 289 292 293 293 294 295 296 297 297 297 296 296 296 296 297 297 297 297 298 298 298 298 298 297 297 296 296 294 294 294 293
256 258 263 266 270 275 276 279 283 286 287 288 291 294 295 297 298 299 300 300 299 299 299 299 300 300 300 301 301 301 301 301 301 301 300 300 300 299 298 297 297 296 294
255 258 265 268 272 278 282 283 285 287 290 292 295 297 299 300 301 302 302 302 302 303 303 303 303 303 303 304 304 304 304 303 303 303 303 303 303 303 302 301 300 299 297
257 263 270 273 277 280 283 286 288 290 293 296 298 300 301 302 303 304 304 304 305 306 306 306 306 306 306 307 308 308 307 306 305 305 306 306 306 306 306 304 303 302 300
263 268 273 277 280 283 287 290 293 295 297 300 301 303 304 304 305 306 306 307 308 309 310 310 310 310 310 312 313 313 312 311 310 310 309 310 311 311 310 309 308 306 303
270 274 278 283 288 291 294 296 298 300 302 303 304 305 306 307 307 308 309 310 311 313 314 315 316 317 317 317 318 318 317 316 315 315 314 314 315 315 315 314 312 310 307
282 286 291 294 296 297 298 299 301 303 303 304 305 306 307 308 310 311 312 313 315 316 318 320 321 322 323 323 324 325 324 323 322 321 319 318 319 319 319 318 317 315 312
290 292 294 296 297 298 299 300 302 303 304 304 305 306 307 308 311 313 315 317 319 320 322 323 325 327 328 330 330 330 329 328 327 326 325 324 323 323 322 321 321 320 317
293 294 295 297 298 298 299 301 302 303 304 305 305 306 307 309 312 314 317 319 321 323 325 327 329 331 333 334 335 335 335 334 333 332 331 330 329 328 326 325 324 322 320
295 296 297 297 298 299 300 302 303 304 304 305 306 308 309 312 314 316 319 321 323 325 328 331 334 335 337 339 340 340 341 341 340 339 338 336 336 334 332 330 328 326 323
Height
5833 5834 5835 5837 5838 5839 5841 5842 5844 5846 5848 5849 5851 5852 5853 5854 5855 5856 5857 5858 5858 5859 5859 5859 5858 5858 5858 5857 5857 5856 5856 5855 5854 5853 5853 5852 5852 5850 5849 5848 5847 5845 5844
5832 5833 5834 5835 5836 5837 5838 5840 5841 5842 5844 5845 5846 5847 5849 5850 5850 5851 5852 5852 5853 5853 5853 5853 5853 5852 5851 5851 5850 5849 5849 5848 5847 5845 5844 5843 5843 5842 5840 5839 5837 5836 5834
5830 5830 5831 5832 5834 5834 5835 5837 5838 5839 5840 5841 5842 5843 5844 5845 5846 5846 5846 5847 5847 5847 5847 5846 5846 5845 5845 5844 5843 5842 5841 5840 5839 5838 5836 5834 5833 5832 5830 5829 5827 5825 5824
5827 5828 5829 5830 5831 5832 5833 5833 5834 5835 5836 5837 5838 5838 5839 5840 5840 5840 5840 5841 5841 5841 5840 5840 5839 5838 5838 5837 5836 5835 5833 5832 5831 5829 5827 5825 5823 5821 5820 5818 5816 5814 5812
5825 5826 5826 5827 5828 5829 5829 5830 5831 5832 5832 5833 5834 5834 5835 5835 5835 5835 5835 5834 5834 5834 5834 5833 5832 5831 5830 5830 5828 5827 5825 5823 5821 5819 5817 5815 5813 5811 5809 5806 5804 5802 5800
5824 5824 5824 5824 5824 5825 5826 5827 5827 5828 5828 5829 5829 5830 5830 5830 5830 5829 5829 5828 5828 5827 5827 5826 5825 5824 5823 5821 5820 5818 5816 5814 5812 5809 5807 5804 5802 5799 5797 5794 5792 5790 5787
5820 5820 5820 5821 5821 5822 5823 5823 5824 5824 5824 5825 5825 5825 5825 5825 5824 5823 5823 5823 5822 5821 5820 5819 5817 5816 5814 5812 5810 5808 5806 5804 5801 5798 5795 5792 5789 5786 5784 5781 5777 5775 5772
5817 5817 5817 5818 5818 5818 5818 5819 5819 5819 5820 5820 5820 5820 5819 5819 5818 5818 5817 5816 5815 5814 5812 5811 5809 5807 5805 5803 5800 5798 5795 5792 5789 5786 5783 5779 5776 5772 5769 5766 5762 5759 5755
5812 5813 5813 5813 5814 5813 5813 5813 5814 5814 5814 5814 5814 5813 5812 5812 5811 5811 5810 5809 5807 5806 5804 5802 5800 5797 5795 5792 5789 5786 5782 5779 5775 5772 5768 5764 5760 5756 5752 5749 5745 5741 5737
5806 5807 5808 5808 5808 5808 5808 5808 5808 5808 5807 5807 5807 5806 5805 5804 5804 5803 5801 5800 5798 5796 5794 5792 5789 5786 5783 5780 5777 5773 5769 5765 5761 5757 5752 5748 5743 5739 5734 5730 5726 5721 5717
5800 5801 5801 5802 5802 5802 5801 5801 5801 5801 5801 5800 5799 5798 5798 5797 5796 5794 5792 5790 5788 5786 5784 5781 5778 5775 5771 5768 5764 5760 5756 5751 5746 5741 5736 5731 5725 5720 5715 5709 5704 5700 5695
5792 5793 5794 5795 5795 5795 5794 5794 5794 5794 5793 5792 5791 5790 5789 5788 5786 5784 5782 5780 5778 5775 5772 5769 5766 5762 5759 5755 5750 5746 5741 5735 5730 5725 5719 5713 5707 5701 5695 5689 5684 5678 5672
5785 5786 5787 5788 5788 5788 5787 5787 5787 5786 5785 5784 5783 5782 5780 5778 5776 5774 5772 5770 5767 5764 5760 5757 5753 5749 5744 5739 5735 5729 5724 5718 5712 5706 5700 5694 5688 5682 5676 5670 5663 5658 5651
5778 5779 5780 5781 5780 5780 5780 5779 5779 5778 5777 5776 5775 5773 5772 5770 5768 5765 5762 5759 5756 5752 5748 5744 5739 5734 5729 5723 5718 5712 5706 5700 5694 5687 5681 5675 5668 5662 5656 5650 5645 5639 5634
5770 5772 5772 5772 5773 5773 5773 5772 5772 5771 5769 5768 5767 5765 5763 5761 5758 5755 5752 5748 5744 5740 5735 5730 5724 5719 5713 5707 5700 5694 5688 5682 5675 5669 5662 5656 5650 5643 5637 5632 5627 5622 5617
5763 5764 5764 5765 5766 5766 5765 5765 5764 5763 5761 5760 5758 5756 5754 5751 5748 5745 5741 5736 5731 5726 5721 5715 5709 5703 5696 5690 5683 5677 5670 5664 5657 5651 5645 5639 5633 5627 5621 5616 5611 5607 5602
5755 5757 5757 5758 5758 5758 5758 5757 5756 5755 5753 5751 5749 5746 5744 5740 5737 5733 5728 5723 5718 5712 5707 5700 5694 5687 5680 5673 5667 5660 5654 5647 5641 5635 5629 5624 5618 5613 5607 5602 5597 5593 5589
5750 5751 5751 5751 5751 5751 5750 5749 5748 5747 5745 5742 5740 5737 5733 5729 5725 5720 5715 5710 5704 5698 5692 5685 5678 5672 5665 5658 5652 5646 5639 5633 5627 5621 5616 5610 5605 5600 5595 5590 5585 5581 5577
5744 5744 5745 5745 5745 5744 5743 5742 5740 5738 5736 5733 5730 5726 5722 5718 5713 5708 5702 5697 5691 5684 5678 5671 5665 5658 5652 5645 5639 5633 5626 5620 5615 5609 5604 5599 5594 5588 5584 5579 5575 5570 5567
5738 5739 5739 5739 5739 5738 5737 5735 5733 5730 5727 5724 5720 5716 5711 5706 5701 5696 5691 5685 5678 5672 5665 5659 5652 5646 5640 5634 5627 5621 5615 5609 5604 5599 5594 5589 5584 5579 5574 5569 5565 5562 5558
5733 5734 5734 5733 5732 5731 5729 5727 5724 5721 5718 5714 5710 5706 5701 5696 5691 5686 5680 5674 5667 5661 5655 5648 5642 5636 5629 5623 5618 5611 5605 5599 5594 5589 5584 5580 5575 5570 5566 5561 5557 5554 5550
5729 5728 5728 5727 5725 5723 5721 5719 5716 5712 5709 5705 5701 5696 5691 5686 5681 5675 5670 5664 5658 5652 5645 5639 5633 5627 5621 5615 5609 5603 5597 5592 5587 5582 5577 5572 5568 5564 5559 5555 5551 5547 5543
5724 5723 5722 5720 5718 5716 5713 5711 5707 5704 5700 5696 5691 5687 5682 5677 5672 5666 5661 5655 5649 5643 5637 5632 5626 5620 5614 5608 5602 5597 5591 5586 5581 5576 5571 5566 5562 5558 5553 5549 5545 5541 5537
5718 5717 5715 5713 5711 5708 5705 5702 5699 5695 5691 5686 5682 5678 5673 5669 5663 5658 5653 5647 5642 5636 5631 5625 5620 5614 5609 5603 5597 5592 5586 5581 5576 5571 5566 5562 5557 5553 5548 5544 5540 5536 5532
5712 5710 5708 5706 5703 5700 5697 5694 5690 5686 5682 5678 5674 5669 5665 5660 5656 5651 5646 5641 5635 5630 5625 5620 5615 5609 5604 5599 5593 5588 5582 5577 5572 5567 5562 5557 5553 5548 5544 5539 5535 5531 5528
5705 5703 5700 5698 5695 5692 5689 5685 5681 5677 5673 5670 5666 5662 5657 5653 5649 5644 5639 5635 5630 5625 5620 5615 5610 5605 5600 5595 5590 5585 5579 5574 5569 5563 5559 5554 5549 5544 5540 5535 5531 5527 5523